| time (UTC) | temp C | wind direction | speed KPH | gust KPH | rain 1hr cm | rain 24hr cm | rain mn cm | humidity % | barometer mb |
| 20260506020058 | 22 | 285 | 14.5 | 22.5 | 0.00 | 0.00 | 0.00 | 31 | 1001.2 |
| 20260506014558 | 22 | 284 | 19.3 | 29.0 | 0.00 | 0.00 | 0.00 | 31 | 1000.9 |
| 20260506013108 | 23 | 281 | 20.9 | 30.6 | 0.00 | 0.00 | 0.00 | 30 | 1000.8 |
| 20260506011658 | 23 | 280 | 25.7 | 45.1 | 0.00 | 0.00 | 0.00 | 29 | 1000.7 |
| 20260506010059 | 24 | 272 | 38.6 | 53.1 | 0.00 | 0.00 | 0.00 | 28 | 1000.6 |
| 20260506004556 | 24 | 276 | 32.2 | 46.7 | 0.00 | 0.00 | 0.00 | 28 | 1000.6 |
| 20260506003057 | 24 | 273 | 35.4 | 51.5 | 0.00 | 0.00 | 0.00 | 28 | 1000.4 |
| 20260506001557 | 24 | 265 | 24.1 | 41.8 | 0.00 | 0.00 | 0.00 | 29 | 1000.5 |
| 20260506000055 | 24 | 241 | 38.6 | 49.9 | 0.00 | 0.00 | 0.00 | 29 | 1000.4 |
| 20260505234554 | 24 | 245 | 38.6 | 53.1 | 0.00 | 0.00 | 0.00 | 29 | 1000.6 |
| 20260505233058 | 24 | 266 | 41.8 | 54.7 | 0.00 | 0.00 | 0.00 | 29 | 1000.6 |
| 20260505231607 | 24 | 254 | 46.7 | 67.6 | 0.00 | 0.00 | 0.00 | 28 | 1000.5 |
| 20260505230051 | 24 | 290 | 40.2 | 54.7 | 0.00 | 0.00 | 0.00 | 28 | 1000.6 |
| 20260505224554 | 24 | 275 | 30.6 | 46.7 | 0.00 | 0.00 | 0.00 | 29 | 1000.6 |
| 20260505223050 | 24 | 260 | 25.7 | 49.9 | 0.00 | 0.00 | 0.00 | 30 | 1000.7 |
| 20260505221550 | 24 | 288 | 32.2 | 53.1 | 0.00 | 0.00 | 0.00 | 29 | 1000.8 |
| 20260505220057 | 24 | 277 | 45.1 | 59.5 | 0.00 | 0.00 | 0.00 | 29 | 1000.9 |
| 20260505214555 | 25 | 290 | 35.4 | 51.5 | 0.00 | 0.00 | 0.00 | 27 | 1000.7 |
| 20260505213043 | 25 | 250 | 29.0 | 54.7 | 0.00 | 0.00 | 0.00 | 26 | 1000.5 |
| 20260505211538 | 25 | 276 | 33.8 | 45.1 | 0.00 | 0.00 | 0.00 | 27 | 1000.8 |
| 20260505210034 | 25 | 252 | 27.4 | 41.8 | 0.00 | 0.00 | 0.00 | 28 | 1001.0 |
| 20260505204531 | 24 | 242 | 20.9 | 35.4 | 0.00 | 0.00 | 0.00 | 29 | 1001.2 |
| 20260505203047 | 23 | 229 | 25.7 | 35.4 | 0.00 | 0.00 | 0.00 | 29 | 1001.4 |
| 20260505201532 | 23 | 236 | 24.1 | 35.4 | 0.00 | 0.00 | 0.00 | 29 | 1001.5 |
| 20260505200025 | 23 | 222 | 22.5 | 32.2 | 0.00 | 0.00 | 0.00 | 28 | 1001.5 |
| 20260505194523 | 23 | 230 | 19.3 | 33.8 | 0.00 | 0.00 | 0.00 | 28 | 1001.4 |
| 20260505193030 | 22 | 246 | 22.5 | 30.6 | 0.00 | 0.00 | 0.00 | 28 | 1001.6 |
| 20260505191522 | 22 | 219 | 20.9 | 29.0 | 0.00 | 0.00 | 0.00 | 29 | 1001.8 |
| 20260505190027 | 22 | 242 | 20.9 | 30.6 | 0.00 | 0.00 | 0.00 | 29 | 1001.7 |
| 20260505184525 | 23 | 225 | 25.7 | 33.8 | 0.00 | 0.00 | 0.00 | 28 | 1001.8 |
| 20260505183021 | 22 | 236 | 14.5 | 22.5 | 0.00 | 0.00 | 0.00 | 31 | 1001.9 |
| 20260505181519 | 22 | 223 | 11.3 | 19.3 | 0.00 | 0.00 | 0.00 | 33 | 1002.1 |
| 20260505180019 | 22 | 223 | 19.3 | 25.7 | 0.00 | 0.00 | 0.00 | 32 | 1002.2 |
| 20260505174526 | 22 | 222 | 19.3 | 27.4 | 0.00 | 0.00 | 0.00 | 32 | 1002.3 |
| 20260505173015 | 22 | 214 | 11.3 | 20.9 | 0.00 | 0.00 | 0.00 | 32 | 1002.1 |
| 20260505171513 | 22 | 248 | 14.5 | 22.5 | 0.00 | 0.00 | 0.00 | 32 | 1002.3 |
| 20260505170016 | 22 | 206 | 4.8 | 11.3 | 0.00 | 0.00 | 0.00 | 31 | 1002.3 |
| 20260505164508 | 21 | 206 | 1.6 | 9.7 | 0.00 | 0.00 | 0.00 | 31 | 1002.4 |
| 20260505163007 | 21 | 206 | 3.2 | 11.3 | 0.00 | 0.00 | 0.00 | 34 | 1002.6 |
| 20260505161503 | 21 | 206 | 0.0 | 1.6 | 0.00 | 0.00 | 0.00 | 32 | 1002.5 |
| 20260505153101 | 21 | 206 | 0.0 | 0.0 | 0.00 | 0.00 | 0.00 | 33 | 1002.4 |
| 20260505151558 | 20 | 206 | 0.0 | 0.0 | 0.00 | 0.00 | 0.00 | 38 | 1002.6 |
| 20260505124524 | 18 | 281 | 0.0 | 11.3 | 0.00 | 0.00 | 0.00 | 39 | 1001.1 |
| 20260505123021 | 17 | 281 | 11.3 | 14.5 | 0.00 | 0.00 | 0.00 | 43 | 1001.2 |
| 20260505121520 | 17 | 281 | 0.0 | 6.4 | 0.00 | 0.00 | 0.00 | 41 | 1000.7 |
| 20260505120020 | 17 | 281 | 0.0 | 6.4 | 0.00 | 0.00 | 0.00 | 42 | 1000.6 |
| 20260505114519 | 18 | 281 | 0.0 | 0.0 | 0.00 | 0.00 | 0.00 | 38 | 1000.3 |
| 20260505113021 | 19 | 281 | 3.2 | 14.5 | 0.00 | 0.00 | 0.00 | 35 | 1000.4 |
| 20260505111517 | 19 | 281 | 9.7 | 14.5 | 0.00 | 0.00 | 0.00 | 34 | 1000.3 |
| 20260505101518 | 19 | 270 | 6.4 | 12.9 | 0.00 | 0.00 | 0.00 | 36 | 1000.2 |
| 20260505100019 | 19 | 236 | 6.4 | 9.7 | 0.00 | 0.00 | 0.00 | 36 | 1000.3 |
| 20260505094511 | 18 | 236 | 0.0 | 1.6 | 0.00 | 0.00 | 0.00 | 38 | 1000.5 |
| 20260505093015 | 18 | 236 | 0.0 | 0.0 | 0.00 | 0.00 | 0.00 | 40 | 1000.6 |
| 20260505091508 | 18 | 236 | 0.0 | 0.0 | 0.00 | 0.00 | 0.00 | 40 | 1000.4 |
| 20260505090007 | 18 | 236 | 0.0 | 0.0 | 0.00 | 0.00 | 0.00 | 40 | 1000.4 |
| 20260505084508 | 18 | 236 | 0.0 | 11.3 | 0.00 | 0.00 | 0.00 | 38 | 1000.4 |
| 20260505083007 | 18 | 236 | 9.7 | 12.9 | 0.00 | 0.00 | 0.00 | 39 | 1000.5 |
| 20260505081505 | 18 | 236 | 8.0 | 16.1 | 0.00 | 0.00 | 0.00 | 39 | 1000.8 |
| 20260505080002 | 18 | 249 | 14.5 | 17.7 | 0.00 | 0.00 | 0.00 | 40 | 1000.7 |
| 20260505074557 | 19 | 279 | 9.7 | 14.5 | 0.00 | 0.00 | 0.00 | 38 | 1000.7 |
| 20260505073058 | 20 | 281 | 12.9 | 14.5 | 0.00 | 0.00 | 0.00 | 38 | 1000.9 |
| 20260505071556 | 20 | 282 | 9.7 | 12.9 | 0.00 | 0.00 | 0.00 | 37 | 1001.0 |
| 20260505070053 | 20 | 282 | 6.4 | 11.3 | 0.00 | 0.00 | 0.00 | 39 | 1000.9 |
| 20260505064550 | 19 | 282 | 0.0 | 0.0 | 0.00 | 0.00 | 0.00 | 40 | 1000.9 |
| 20260505063047 | 20 | 282 | 0.0 | 0.0 | 0.00 | 0.00 | 0.00 | 37 | 1000.9 |
| 20260505061547 | 20 | 282 | 0.0 | 6.4 | 0.00 | 0.00 | 0.00 | 37 | 1001.1 |
| 20260505060040 | 20 | 282 | 1.6 | 6.4 | 0.00 | 0.00 | 0.00 | 36 | 1001.2 |
| 20260505054544 | 20 | 282 | 9.7 | 11.3 | 0.00 | 0.00 | 0.00 | 37 | 1001.4 |
| 20260505053045 | 20 | 282 | 0.0 | 8.0 | 0.00 | 0.00 | 0.00 | 38 | 1001.6 |
| 20260505051539 | 20 | 282 | 0.0 | 4.8 | 0.00 | 0.00 | 0.00 | 35 | 1001.4 |
| 20260505041537 | 21 | 283 | 3.2 | 6.4 | 0.00 | 0.00 | 0.00 | 30 | 1001.7 |
| 20260505040037 | 21 | 283 | 0.0 | 6.4 | 0.00 | 0.00 | 0.00 | 30 | 1001.7 |
| 20260505034538 | 22 | 283 | 6.4 | 11.3 | 0.00 | 0.00 | 0.00 | 28 | 1001.4 |
| 20260505033100 | 23 | 283 | 9.7 | 12.9 | 0.00 | 0.00 | 0.00 | 25 | 1001.2 |
| 20260505031537 | 24 | 283 | 12.9 | 19.3 | 0.00 | 0.00 | 0.00 | 23 | 1001.0 |
| 20260505030034 | 24 | 265 | 14.5 | 24.1 | 0.00 | 0.00 | 0.00 | 23 | 1001.2 |
| 20260505024534 | 25 | 255 | 12.9 | 17.7 | 0.00 | 0.00 | 0.00 | 23 | 1000.6 |
| 20260505023039 | 25 | 256 | 12.9 | 20.9 | 0.00 | 0.00 | 0.00 | 22 | 1000.8 |
| 20260505021531 | 25 | 246 | 17.7 | 22.5 | 0.00 | 0.00 | 0.00 | 22 | 1000.8 |